OneWeb SL0228

operational
NORAD ID: 48780 Int'l Des: 2021-045 Owner: ONEWEBN Country: UK Constellation: oneweb
LEOCIRCULARPOLARONEWEB_TYPE

关于 OneWeb SL0228

正在加载描述...

实时位置

正在加载3D地球...

即将过境

高度历史

Altitude vs Time

uPlot chart will show altitude changes over time

两行轨道根数

1 48780U 21045P 25304.77106792 .00000203 00000-0 50430-3 0 9992
2 48780 87.8969 304.7491 0001928 94.4846 265.6505 13.15549727214290
Epoch: Oct 31, 2025 • Age: 18 hours

当前状态

高度 1218.4 km
速度 7.24 km/s
星下点 -40.94°S, 95.4°W
发射日期 May 28, 2021
运行时间 4.4 years
类型 internet

技术详情

分类 Payload
质量 148.00 kg
干质量 140.00 kg
总质量 148.00 kg
长度 1.30 m
直径 1.00 m
跨度 5.00 m
形状 Trapezoid+2 pan
制造商 ONEWUS
平台类型 ARROW
阶段状态 In Orbit
所有者/国家 ONEWEBN/UK

大型星座

Loading constellations...